Boston, MA

4:14 AM EST on February 14, 2016 (GMT -0500)
East Milton

Weather History for KMQE - September, 2013

Change the Weather History Date:

Friday, September 13, 2013

  Actual Average (KBOS) Record (KBOS)
Temperature  
Mean Temperature 68 °F 66 °F  
Max Temperature 80 °F 74 °F 93 °F (1957)
Min Temperature 57 °F 59 °F 45 °F (1985)
Degree Days  
Heating Degree Days 0 2  
Month to date heating degree days 16  
Since 1 July heating degree days 29  
Cooling Degree Days 2 3  
Month to date cooling degree days 52  
Year to date cooling degree days 711  
Growing Degree Days 18 (Base 50)    
Moisture  
Dew Point 63 °F    
Average Humidity 88    
Maximum Humidity 100    
Minimum Humidity 62    
Precipitation  
Precipitation 0.21 in 0.11 in 2.30 in (1987)
Month to date precipitation 1.37  
Year to date precipitation 29.99  
Sea Level Pressure  
Sea Level Pressure 29.67 in    
Wind  
Wind Speed 5 mph (West)    
Max Wind Speed 14 mph    
Max Gust Speed 24 mph    
T = Trace of Precipitation, MM = Missing Value Source: NWS Daily Summary

Daily Weather History Graph

Daily Weather History Graph

Search for Another Location

Airport or City:

Trip Planner

Search our weather history database for the weather conditions in past years. The results will help you decide how hot, cold, wet, or windy it might be!

Date:

Astronomy

Sep. 13, 2013 Rise Set
Actual Time 6:22 AM EDT 6:57 PM EDT
Civil Twilight 5:54 AM EDT 7:25 PM EDT
Nautical Twilight 5:21 AM EDT 7:58 PM EDT
Astronomical Twilight 4:46 AM EDT 8:32 PM EDT
Moon 2:48 PM EDT (9/13) No Moon Set
Length of Visible Light 13h 30m
Length of Day
12h 34m
First Quarter, 61% of the Moon is Illuminated
Sep 13
First Quarter
Sep 19
Full
Sep 26
Last Quarter
Oct 4
New
Oct 11
First Quarter

Hourly Weather History & Observations

Time (EDT) Temp. Dew Point Humidity Pressure Visibility Wind Dir Wind Speed Gust Speed Precip Events Conditions
12:54 AM 66.0 °F 64.9 °F 96% 29.70 in - Calm Calm - 0.04 in   Unknown
1:54 AM 66.0 °F 66.0 °F 100% 29.69 in - South 8.1 mph - N/A   Unknown
2:54 AM 66.9 °F 66.9 °F 100% 29.66 in - SW 6.9 mph - 0.01 in   Unknown
3:54 AM 66.9 °F 66.9 °F 100% 29.64 in - SSW 6.9 mph - N/A   Unknown
4:54 AM 66.9 °F 66.9 °F 100% 29.64 in - SSW 5.8 mph - N/A   Unknown
5:54 AM 66.9 °F 66.9 °F 100% 29.65 in - SSW 4.6 mph - N/A   Unknown
6:54 AM 66.9 °F 66.9 °F 100% 29.66 in - West 5.8 mph - N/A   Unknown
7:54 AM 66.0 °F 66.0 °F 100% 29.66 in - NW 9.2 mph - 0.08 in   Unknown
8:54 AM 66.0 °F 66.0 °F 100% 29.66 in - NW 3.5 mph - 0.08 in   Unknown
9:54 AM 66.9 °F 66.0 °F 97% 29.66 in - Calm Calm - N/A   Unknown
10:54 AM 68.0 °F 66.0 °F 93% 29.65 in - Calm Calm - N/A   Unknown
11:54 AM 71.1 °F 66.0 °F 84% 29.64 in - Variable 3.5 mph - N/A   Unknown
12:54 PM 73.9 °F 64.9 °F 73% 29.62 in - Variable 3.5 mph - N/A   Unknown
1:54 PM 75.9 °F 64.9 °F 69% 29.62 in - Variable 3.5 mph - N/A   Unknown
2:54 PM 78.1 °F 64.0 °F 62% 29.60 in - SSW 6.9 mph - N/A   Unknown
3:54 PM 73.9 °F 66.0 °F 76% 29.62 in - West 4.6 mph - N/A   Unknown
4:54 PM 70.0 °F 64.0 °F 81% 29.63 in - Variable 4.6 mph - N/A   Unknown
5:54 PM 66.9 °F 60.1 °F 79% 29.65 in - NNW 11.5 mph 24.2 mph N/A   Unknown
6:54 PM 64.9 °F 57.9 °F 78% 29.69 in - NNW 9.2 mph 21.9 mph N/A   Unknown
7:54 PM 63.0 °F 57.0 °F 81% 29.73 in - NNW 11.5 mph - N/A   Unknown
8:54 PM 61.0 °F 57.0 °F 87% 29.75 in - NW 11.5 mph - N/A   Unknown
9:54 PM 60.1 °F 55.0 °F 83% 29.76 in - NNW 13.8 mph 20.7 mph N/A   Unknown
10:54 PM 57.9 °F 55.0 °F 90% 29.77 in - NW 11.5 mph - N/A   Unknown
11:54 PM 57.9 °F 54.0 °F 87% 29.78 in - NW 9.2 mph 18.4 mph N/A   Unknown